This is the latest recevied weather packets stored in our database for station/object S57PNX-10. If no packets are shown the sender has not sent any weather packets the latest 10 day(s).
| Time | Temp. | Humidity | Pressure | Rain* | Wind** | Luminosity | Snow |
|---|---|---|---|---|---|---|---|
| 1777649950 | 25° C | 21% | 1022.1 hPa | - | - | - | - |
| 1777649052 | 25° C | 22% | 1022.2 hPa | - | - | - | - |
| 1777648149 | 25.56° C | 21% | 1022.4 hPa | - | - | - | - |
| 1777647254 | 25.56° C | 20% | 1022.5 hPa | - | - | - | - |
| 1777646353 | 25.56° C | 20% | 1022.4 hPa | - | - | - | - |
| 1777645452 | 26.11° C | 20% | 1022.6 hPa | - | - | - | - |
| 1777644548 | 25.56° C | 21% | 1022.7 hPa | - | - | - | - |
| 1777642748 | 25.56° C | 22% | 1022.9 hPa | - | - | - | - |
| 1777641848 | 25° C | 22% | 1023.1 hPa | - | - | - | - |
| 1777640951 | 25° C | 23% | 1023.4 hPa | - | - | - | - |
| 1777640051 | 25° C | 24% | 1023.4 hPa | - | - | - | - |
| 1777639148 | 24.44° C | 23% | 1023.7 hPa | - | - | - | - |
| 1777638252 | 24.44° C | 23% | 1023.7 hPa | - | - | - | - |
| 1777637348 | 24.44° C | 23% | 1023.9 hPa | - | - | - | - |
| 1777636450 | 23.89° C | 22% | 1024.1 hPa | - | - | - | - |
| 1777635551 | 23.89° C | 22% | 1024.3 hPa | - | - | - | - |
| 1777634652 | 23.33° C | 22% | 1024.4 hPa | - | - | - | - |
| 1777631951 | 23.33° C | 20% | 1024.8 hPa | - | - | - | - |
| 1777631050 | 22.78° C | 20% | 1025 hPa | - | - | - | - |
| 1777630149 | 22.78° C | 20% | 1025.1 hPa | - | - | - | - |
| 1777629246 | 22.78° C | 22% | 1025.4 hPa | - | - | - | - |
| 1777628346 | 23.33° C | 21% | 1025.4 hPa | - | - | - | - |
| 1777627446 | 23.33° C | 21% | 1025.5 hPa | - | - | - | - |
| 1777626546 | 23.33° C | 18% | 1025.5 hPa | - | - | - | - |
| 1777624746 | 22.78° C | 17% | 1025.7 hPa | - | - | - | - |
* Rain since midnight (hover to see other rain measurements)
** Current wind speed in m/s (hover to see current wind gust speed)